Location: Devargunta
(16.7631°N, 80.9077°E)
Time: 10:30:43
(UTC+00:00)

Cosmos 1818 - Pass Details

Date: 19 January 2021
Orbit: 773 x 800 km, 65.0° (Epoch: 28 February)

Event Time Altitude Azimuth Distance (km) Brightness Sun altitude
Exits shadow 22:55:40 55° 83° (E) 948 4.1 -31.3°
Drops below altitude 10° 23:00:36 10° 144° (SE) 2,351 6.6 -30.2°
Sets 23:03:03 0° 148° (SSE) 3,275 7.4 -29.6°
